,,Stat6,,Stat2,,Stat8,,Stat9,,Stat10,,Wind1,,Wind1,
time,status,PA1M_AVG,status,PR1M_SUM,status,RH1M_AVG,status,SR1M_AVG,status,TA1M_AVG,status,W1dAve1m,status,W1sAve1m,
2004-05-13, 00:00:00,VALID,917.042,VALID,0,VALID,97.7419,VALID,0,VALID,19.8051,VALID,35,VALID,0.604861,
2004-05-13, 00:01:00,VALID,917.028,VALID,0,VALID,98,VALID,0,VALID,19.811,VALID,35,VALID,0.611806,
2004-05-13, 00:02:00,VALID,917.004,VALID,0,VALID,97.527,VALID,0,VALID,19.8244,VALID,35,VALID,0.446875,
2004-05-13, 00:03:00,VALID,916.995,VALID,0,VALID,96.881,VALID,0,VALID,19.7671,VALID,35,VALID,0.363021,
2004-05-13, 00:04:00,VALID,916.993,VALID,0,VALID,96.6814,VALID,-0.0169808,VALID,19.699,VALID,35,VALID,0.4016,
2004-05-13, 00:05:00,VALID,916.997,VALID,0,VALID,96.8785,VALID,0,VALID,19.6632,VALID,35,VALID,0.2607,
2004-05-13, 00:06:00,VALID,917.001,VALID,0,VALID,97.4329,VALID,0,VALID,19.6697,VALID,35,VALID,0.315874,
2004-05-13, 00:07:00,VALID,916.975,VALID,0,VALID,97.7343,VALID,-0.0169808,VALID,19.6764,VALID,12,VALID,0.380526,
2004-05-13, 00:08:00,VALID,916.936,VALID,0,VALID,97.2154,VALID,-0.0169808,VALID,19.6148,VALID,1,VALID,0.385121,
2004-05-13, 00:09:00,VALID,916.908,VALID,0,VALID,96.6267,VALID,-0.0169808,VALID,19.5052,VALID,1,VALID,0.507813,
2004-05-13, 00:10:00,VALID,916.904,VALID,0,VALID,97.162,VALID,0.0169808,VALID,19.4789,VALID,1,VALID,0.544618,
2004-05-13, 00:11:00,VALID,916.901,VALID,0,VALID,97.5689,VALID,0,VALID,19.4926,VALID,1,VALID,0.40952,
2004-05-13, 00:12:00,VALID,916.905,VALID,0,VALID,97.6859,VALID,0,VALID,19.4764,VALID,1,VALID,0.208705,
2004-05-13, 00:13:00,VALID,916.931,VALID,0,VALID,98.0127,VALID,-0.0169808,VALID,19.5048,VALID,1,VALID,0.29581,
2004-05-13, 00:14:00,VALID,916.946,VALID,0,VALID,98.1259,VALID,0,VALID,19.5311,VALID,1,VALID,0.318496,
2004-05-13, 00:15:00,VALID,916.952,VALID,0,VALID,98.2798,VALID,-0.0169808,VALID,19.5671,VALID,1,VALID,0.493676,
2004-05-13, 00:16:00,VALID,916.947,VALID,0,VALID,98.2391,VALID,0,VALID,19.5703,VALID,22,VALID,0.672075,
2004-05-13, 00:17:00,VALID,916.965,VALID,0,VALID,98.117,VALID,0,VALID,19.5378,VALID,35,VALID,0.724516,
2004-05-13, 00:18:00,VALID,916.967,VALID,0,VALID,98.4069,VALID,0,VALID,19.5378,VALID,35,VALID,0.627131,
2004-05-13, 00:19:00,VALID,916.959,VALID,0,VALID,98.482,VALID,0,VALID,19.5606,VALID,34,VALID,0.573552,
2004-05-13, 00:20:00,VALID,916.953,VALID,0,VALID,98.4731,VALID,-0.0169808,VALID,19.5542,VALID,34,VALID,0.531064,
2004-05-13, 00:21:00,VALID,916.954,VALID,0,VALID,98.3243,VALID,-0.0169808,VALID,19.5115,VALID,34,VALID,0.424423,
2004-05-13, 00:22:00,VALID,916.944,VALID,0,VALID,98.5506,VALID,-0.0169808,VALID,19.5279,VALID,34,VALID,0.372582,
2004-05-13, 00:23:00,VALID,916.925,VALID,0,VALID,98.7159,VALID,0,VALID,19.544,VALID,33,VALID,0.380087,
2004-05-13, 00:24:00,VALID,916.924,VALID,0,VALID,98.9219,VALID,0,VALID,19.5631,VALID,14,VALID,0.627418,
2004-05-13, 00:25:00,VALID,916.937,VALID,0,VALID,98.8609,VALID,0.0169808,VALID,19.5758,VALID,9,VALID,0.678906,
2004-05-13, 00:26:00,VALID,916.953,VALID,0,VALID,98.9359,VALID,-0.0169808,VALID,19.6026,VALID,9,VALID,0.659702,
2004-05-13, 00:27:00,VALID,916.956,VALID,0,VALID,99.2742,VALID,-0.0169808,VALID,19.6637,VALID,9,VALID,0.557664,
2004-05-13, 00:28:00,VALID,916.946,VALID,0,VALID,99.2742,VALID,-0.0169808,VALID,19.6958,VALID,10,VALID,0.658482,
2004-05-13, 00:29:00,VALID,916.945,VALID,0,VALID,99.325,VALID,0,VALID,19.7606,VALID,10,VALID,0.56901,
2004-05-13, 00:30:00,VALID,916.959,VALID,0,VALID,99.2615,VALID,0,VALID,19.7988,VALID,10,VALID,0.327592,
2004-05-13, 00:31:00,VALID,916.96,VALID,0,VALID,99.2996,VALID,0,VALID,19.8505,VALID,10,VALID,0.169085,
2004-05-13, 00:32:00,VALID,916.965,VALID,0,VALID,99.1864,VALID,0,VALID,19.8927,VALID,10,VALID,0.0450149,
2004-05-13, 00:33:00,VALID,916.975,VALID,0,VALID,98.927,VALID,0,VALID,19.9221,VALID,10,VALID,0,
2004-05-13, 00:34:00,VALID,916.95,VALID,0,VALID,98.7897,VALID,0.0169808,VALID,19.925,VALID,10,VALID,0.197129,
2004-05-13, 00:35:00,VALID,916.93,VALID,0,VALID,98.9486,VALID,0,VALID,19.9638,VALID,35,VALID,0.43679,
2004-05-13, 00:36:00,VALID,916.892,VALID,0,VALID,98.721,VALID,0,VALID,20.003,VALID,48,VALID,0.425145,
2004-05-13, 00:37:00,VALID,916.86,VALID,0,VALID,98.7363,VALID,0,VALID,20.0182,VALID,56,VALID,0.487827,
2004-05-13, 00:38:00,VALID,916.859,VALID,0,VALID,98.9232,VALID,0.0169808,VALID,20.0733,VALID,61,VALID,0.487723,
2004-05-13, 00:39:00,VALID,916.862,VALID,0,VALID,98.3739,VALID,0.0169808,VALID,20.0868,VALID,61,VALID,0.26456,
2004-05-13, 00:40:00,VALID,916.87,VALID,0,VALID,97.0972,VALID,0.0169808,VALID,19.9437,VALID,61,VALID,0.132813,
2004-05-13, 00:41:00,VALID,916.855,VALID,0,VALID,97.3159,VALID,0,VALID,19.9317,VALID,61,VALID,0.403392,
2004-05-13, 00:42:00,VALID,916.833,VALID,0,VALID,97.1836,VALID,0,VALID,19.8987,VALID,33,VALID,0.343217,
2004-05-13, 00:43:00,VALID,916.837,VALID,0,VALID,98.2276,VALID,0,VALID,19.9606,VALID,17,VALID,0.413699,
2004-05-13, 00:44:00,VALID,916.841,VALID,0,VALID,97.9339,VALID,0.0169808,VALID,19.9799,VALID,17,VALID,0.0729759,
2004-05-13, 00:45:00,VALID,916.835,VALID,0,VALID,97.7788,VALID,-0.0169808,VALID,19.9732,VALID,17,VALID,0.0905107,
2004-05-13, 00:46:00,VALID,916.834,VALID,0,VALID,97.7279,VALID,0,VALID,19.9568,VALID,17,VALID,0.258413,
2004-05-13, 00:47:00,VALID,916.834,VALID,0,VALID,97.4418,VALID,0,VALID,19.9285,VALID,17,VALID,0.242361,
2004-05-13, 00:48:00,VALID,916.814,VALID,0,VALID,97.6414,VALID,0,VALID,19.9221,VALID,17,VALID,0.282465,
2004-05-13, 00:49:00,VALID,916.79,VALID,0,VALID,97.4939,VALID,0,VALID,19.9086,VALID,17,VALID,0.198933,
2004-05-13, 00:50:00,VALID,916.743,VALID,0,VALID,97.8334,VALID,0,VALID,19.9059,VALID,17,VALID,0.420277,
2004-05-13, 00:51:00,VALID,916.727,VALID,0,VALID,97.7978,VALID,0.0339617,VALID,19.9156,VALID,19,VALID,0.489826,
2004-05-13, 00:52:00,VALID,916.729,VALID,0,VALID,97.8945,VALID,0,VALID,19.8701,VALID,25,VALID,0.639737,
2004-05-13, 00:53:00,VALID,916.707,VALID,0,VALID,98.4832,VALID,0,VALID,19.9285,VALID,25,VALID,0.627148,
2004-05-13, 00:54:00,VALID,916.674,VALID,0,VALID,98.6816,VALID,0.0169808,VALID,19.9906,VALID,25,VALID,0.415777,
2004-05-13, 00:55:00,VALID,916.67,VALID,0,VALID,98.4845,VALID,0,VALID,19.9802,VALID,25,VALID,0.402902,
2004-05-13, 00:56:00,VALID,916.635,VALID,0,VALID,97.7457,VALID,0,VALID,19.893,VALID,25,VALID,0.31064,
2004-05-13, 00:57:00,VALID,916.596,VALID,0,VALID,97.6758,VALID,0,VALID,19.818,VALID,25,VALID,0.165278,
2004-05-13, 00:58:00,VALID,916.565,VALID,0,VALID,97.7533,VALID,0,VALID,19.7862,VALID,25,VALID,0,
2004-05-13, 00:59:00,VALID,916.553,VALID,0,VALID,97.8729,VALID,-0.0169808,VALID,19.7512,VALID,25,VALID,0.225074,
2004-05-13, 01:00:00,VALID,916.542,VALID,0,VALID,98.1068,VALID,0,VALID,19.7544,VALID,25,VALID,0.204055,
2004-05-13, 01:01:00,VALID,916.564,VALID,0,VALID,98.3561,VALID,0,VALID,19.7574,VALID,25,VALID,0.202106,
2004-05-13, 01:02:00,VALID,916.575,VALID,0,VALID,98.7121,VALID,0,VALID,19.7892,VALID,25,VALID,0.328307,
2004-05-13, 01:03:00,VALID,916.588,VALID,0,VALID,98.9944,VALID,0,VALID,19.8349,VALID,17,VALID,0.446265,
2004-05-13, 01:04:00,VALID,916.578,VALID,0,VALID,99.0682,VALID,-0.101885,VALID,19.859,VALID,358,VALID,0.536882,
2004-05-13, 01:05:00,VALID,916.55,VALID,0,VALID,99.105,VALID,-0.101885,VALID,19.8781,VALID,358,VALID,0.491016,
2004-05-13, 01:06:00,VALID,916.51,VALID,0,VALID,99.208,VALID,-0.118866,VALID,19.9017,VALID,358,VALID,0.492914,
2004-05-13, 01:07:00,VALID,916.454,VALID,0,VALID,99.4496,VALID,-0.101885,VALID,19.9663,VALID,358,VALID,0.626367,
2004-05-13, 01:08:00,VALID,916.42,VALID,0,VALID,99.2424,VALID,-0.101885,VALID,19.9531,VALID,358,VALID,0.482599,
2004-05-13, 01:09:00,VALID,916.377,VALID,0,VALID,99.1724,VALID,-0.0849042,VALID,19.9489,VALID,358,VALID,0.399148,
2004-05-13, 01:10:00,VALID,916.331,VALID,0,VALID,99.1368,VALID,-0.118866,VALID,19.9656,VALID,358,VALID,0.074929,
2004-05-13, 01:11:00,VALID,916.286,VALID,0,VALID,99.3021,VALID,-0.101885,VALID,19.9777,VALID,358,VALID,0,
2004-05-13, 01:12:00,VALID,916.24,VALID,0,VALID,99.5883,VALID,-0.101885,VALID,20.0592,VALID,358,VALID,0.175305,
2004-05-13, 01:13:00,VALID,916.224,VALID,0,VALID,99.4585,VALID,-0.101885,VALID,20.0786,VALID,358,VALID,0.173651,
2004-05-13, 01:14:00,VALID,916.228,VALID,0,VALID,99.4649,VALID,-0.101885,VALID,20.0883,VALID,357,VALID,0.274891,
2004-05-13, 01:15:00,VALID,916.242,VALID,0,VALID,99.4115,VALID,-0.101885,VALID,20.1233,VALID,356,VALID,0.292411,
2004-05-13, 01:16:00,VALID,916.233,VALID,0,VALID,99.2411,VALID,-0.0849042,VALID,20.1106,VALID,356,VALID,0.213224,
2004-05-13, 01:17:00,VALID,916.244,VALID,0,VALID,99.0949,VALID,-0.118866,VALID,20.1077,VALID,356,VALID,0.212109,
2004-05-13, 01:18:00,VALID,916.246,VALID,0,VALID,99.0783,VALID,-0.101885,VALID,20.098,VALID,356,VALID,0.0122514,
2004-05-13, 01:19:00,VALID,916.242,VALID,0,VALID,99.0809,VALID,0,VALID,20.1027,VALID,356,VALID,0,
2004-05-13, 01:20:00,VALID,916.207,VALID,0,VALID,98.8723,VALID,0.0169808,VALID,20.0768,VALID,356,VALID,0.0133929,
2004-05-13, 01:21:00,VALID,916.17,VALID,0,VALID,98.9003,VALID,0,VALID,20.0701,VALID,356,VALID,0.0816761,
2004-05-13, 01:22:00,VALID,916.141,VALID,0,VALID,98.8685,VALID,0.0169808,VALID,20.0669,VALID,356,VALID,0.323219,
2004-05-13, 01:23:00,VALID,916.109,VALID,0,VALID,99.002,VALID,0,VALID,20.0935,VALID,356,VALID,0.175249,
2004-05-13, 01:24:00,VALID,916.094,VALID,0,VALID,99.044,VALID,0.0169808,VALID,20.1024,VALID,356,VALID,0.000372024,
2004-05-13, 01:25:00,VALID,916.068,VALID,0,VALID,99.058,VALID,0.0339617,VALID,20.1123,VALID,356,VALID,0.177455,
2004-05-13, 01:26:00,VALID,916.026,VALID,0,VALID,99.1521,VALID,0,VALID,20.118,VALID,356,VALID,0.111328,
2004-05-13, 01:27:00,VALID,915.994,VALID,0,VALID,99.1928,VALID,0.0169808,VALID,20.1576,VALID,358,VALID,0.444586,
2004-05-13, 01:28:00,VALID,915.979,VALID,0,VALID,98.7668,VALID,0.0169808,VALID,20.1094,VALID,359,VALID,0.277699,
2004-05-13, 01:29:00,VALID,915.954,VALID,0,VALID,98.4909,VALID,0.0169808,VALID,20.0443,VALID,359,VALID,0.264486,
2004-05-13, 01:30:00,VALID,915.926,VALID,0,VALID,98.585,VALID,0,VALID,20.0219,VALID,359,VALID,0.498094,
2004-05-13, 01:31:00,VALID,915.92,VALID,0,VALID,98.4603,VALID,0,VALID,20.009,VALID,359,VALID,0.68423,
2004-05-13, 01:32:00,VALID,915.919,VALID,0,VALID,98.7019,VALID,0.0169808,VALID,19.9891,VALID,360,VALID,0.787388,
2004-05-13, 01:33:00,VALID,915.917,VALID,0,VALID,98.9982,VALID,0,VALID,20.0023,VALID,360,VALID,0.670945,
2004-05-13, 01:34:00,VALID,915.913,VALID,0,VALID,99.2246,VALID,0,VALID,20.0082,VALID,6,VALID,0.602134,
2004-05-13, 01:35:00,VALID,915.896,VALID,0,VALID,99.3644,VALID,0.0169808,VALID,20.0341,VALID,7,VALID,0.503196,
2004-05-13, 01:36:00,VALID,915.878,VALID,0,VALID,99.4776,VALID,0.0169808,VALID,20.0728,VALID,7,VALID,0.541243,
2004-05-13, 01:37:00,VALID,915.845,VALID,0,VALID,99.3619,VALID,0.0339617,VALID,20.0793,VALID,7,VALID,0.518229,
2004-05-13, 01:38:00,VALID,915.838,VALID,0,VALID,99.4242,VALID,0.0339617,VALID,20.0925,VALID,9,VALID,0.588715,
2004-05-13, 01:39:00,VALID,915.83,VALID,0,VALID,99.4217,VALID,0.0849042,VALID,20.1178,VALID,10,VALID,0.445313,
2004-05-13, 01:40:00,VALID,915.84,VALID,0,VALID,99.3924,VALID,0.0169808,VALID,20.1243,VALID,10,VALID,0.386905,
2004-05-13, 01:41:00,VALID,915.849,VALID,0,VALID,99.3861,VALID,0.0339617,VALID,20.1208,VALID,10,VALID,0.338415,
2004-05-13, 01:42:00,VALID,915.842,VALID,0,VALID,99.3861,VALID,0.0339617,VALID,20.1474,VALID,10,VALID,0.29043,
2004-05-13, 01:43:00,VALID,915.827,VALID,0,VALID,99.2665,VALID,0.0509425,VALID,20.1372,VALID,10,VALID,0.397461,
2004-05-13, 01:44:00,VALID,915.812,VALID,0,VALID,99.0567,VALID,0.0339617,VALID,20.1116,VALID,10,VALID,0.469105,
2004-05-13, 01:45:00,VALID,915.796,VALID,0,VALID,98.7706,VALID,0,VALID,20.0502,VALID,21,VALID,0.58774,
2004-05-13, 01:46:00,VALID,915.782,VALID,0,VALID,98.2416,VALID,0.0169808,VALID,19.9471,VALID,30,VALID,0.695313,
2004-05-13, 01:47:00,VALID,915.797,VALID,0,VALID,98.178,VALID,0.0339617,VALID,19.8664,VALID,31,VALID,0.705592,
2004-05-13, 01:48:00,VALID,915.82,VALID,0,VALID,98.8787,VALID,0.0679233,VALID,19.8821,VALID,28,VALID,0.587891,
2004-05-13, 01:49:00,VALID,915.831,VALID,0,VALID,99.3708,VALID,0,VALID,19.9375,VALID,26,VALID,0.329985,
2004-05-13, 01:50:00,VALID,915.797,VALID,0,VALID,99.6061,VALID,0.0849042,VALID,19.9856,VALID,25,VALID,0.326172,
2004-05-13, 01:51:00,VALID,915.785,VALID,0,VALID,99.6595,VALID,0.0339617,VALID,20.0187,VALID,25,VALID,0.207564,
2004-05-13, 01:52:00,VALID,915.775,VALID,0,VALID,99.7218,VALID,0.0169808,VALID,20.0145,VALID,25,VALID,0.359756,
2004-05-13, 01:53:00,VALID,915.782,VALID,0,VALID,99.6963,VALID,0.0169808,VALID,20.0212,VALID,25,VALID,0.0259233,
2004-05-13, 01:54:00,VALID,915.788,VALID,0,VALID,99.545,VALID,0.0169808,VALID,20.012,VALID,25,VALID,0,
2004-05-13, 01:55:00,VALID,915.793,VALID,0,VALID,99.3454,VALID,0.0169808,VALID,19.9469,VALID,25,VALID,0,
2004-05-13, 01:56:00,VALID,915.799,VALID,0,VALID,99.3695,VALID,0.0169808,VALID,19.9571,VALID,25,VALID,0,
2004-05-13, 01:57:00,VALID,915.783,VALID,0,VALID,99.2055,VALID,0.0339617,VALID,19.9275,VALID,25,VALID,0.0383185,
2004-05-13, 01:58:00,VALID,915.764,VALID,0,VALID,98.632,VALID,0.0509425,VALID,19.8113,VALID,25,VALID,0.592115,
2004-05-13, 01:59:00,VALID,915.761,VALID,0,VALID,98.5583,VALID,0.0169808,VALID,19.7211,VALID,25,VALID,0.761265,
2004-05-13, 02:00:00,VALID,915.764,VALID,0,VALID,99.47,VALID,0.0169808,VALID,19.811,VALID,33,VALID,1.05913,
2004-05-13, 02:01:00,VALID,915.76,VALID,0,VALID,99.6849,VALID,0.0509425,VALID,19.856,VALID,24,VALID,1.20406,
2004-05-13, 02:02:00,VALID,915.73,VALID,0,VALID,99.8795,VALID,0.101885,VALID,19.9176,VALID,25,VALID,1.18899,
2004-05-13, 02:03:00,VALID,915.722,VALID,0,VALID,99.9273,VALID,0.0169808,VALID,19.966,VALID,24,VALID,1.24757,
2004-05-13, 02:04:00,VALID,915.725,VALID,0,VALID,99.9298,VALID,-0.0509425,VALID,20.0356,VALID,27,VALID,1.17031,
2004-05-13, 02:05:00,VALID,915.703,VALID,0,VALID,99.6569,VALID,-0.0679233,VALID,20.0547,VALID,21,VALID,1.04059,
2004-05-13, 02:06:00,VALID,915.696,VALID,0,VALID,99.512,VALID,-0.0849042,VALID,20.0577,VALID,19,VALID,1.03962,
2004-05-13, 02:07:00,VALID,915.694,VALID,0,VALID,99.3975,VALID,-0.0679233,VALID,20.0776,VALID,18,VALID,0.9734,
2004-05-13, 02:08:00,VALID,915.695,VALID,0,VALID,99.0389,VALID,-0.0849042,VALID,20.0386,VALID,8,VALID,0.760417,
2004-05-13, 02:09:00,VALID,915.706,VALID,0,VALID,99.1445,VALID,-0.0849042,VALID,20.0749,VALID,355,VALID,0.689499,
2004-05-13, 02:10:00,VALID,915.717,VALID,0,VALID,99.4293,VALID,-0.0509425,VALID,20.1096,VALID,344,VALID,0.729048,
2004-05-13, 02:11:00,VALID,915.733,VALID,0,VALID,99.498,VALID,-0.0849042,VALID,20.1718,VALID,347,VALID,0.541667,
2004-05-13, 02:12:00,VALID,915.715,VALID,0,VALID,99.1826,VALID,-0.101885,VALID,20.1452,VALID,351,VALID,0.200921,
2004-05-13, 02:13:00,VALID,915.716,VALID,0,VALID,98.8011,VALID,-0.0509425,VALID,20.094,VALID,350,VALID,0.360677,
2004-05-13, 02:14:00,VALID,915.704,VALID,0,VALID,99.1381,VALID,-0.0339617,VALID,20.1255,VALID,350,VALID,0.308203,
2004-05-13, 02:15:00,VALID,915.723,VALID,0,VALID,98.8851,VALID,-0.101885,VALID,20.1096,VALID,350,VALID,0.198918,
2004-05-13, 02:16:00,VALID,915.716,VALID,0,VALID,98.2111,VALID,-0.101885,VALID,19.9645,VALID,350,VALID,0.201891,
2004-05-13, 02:17:00,VALID,915.722,VALID,0,VALID,98.571,VALID,-0.0849042,VALID,19.968,VALID,350,VALID,0.0294331,
2004-05-13, 02:18:00,VALID,915.722,VALID,0,VALID,98.8571,VALID,-0.0679233,VALID,19.9708,VALID,350,VALID,0.036859,
2004-05-13, 02:19:00,VALID,915.739,VALID,0,VALID,99.0071,VALID,0.0339617,VALID,19.9886,VALID,350,VALID,0.0637718,
2004-05-13, 02:20:00,VALID,915.766,VALID,0,VALID,99.1877,VALID,0.0679233,VALID,20.0152,VALID,350,VALID,0.0912729,
2004-05-13, 02:21:00,VALID,915.789,VALID,0,VALID,99.1521,VALID,0.0169808,VALID,19.9981,VALID,350,VALID,0.204033,
2004-05-13, 02:22:00,VALID,915.8,VALID,0,VALID,99.1216,VALID,0.0679233,VALID,19.9921,VALID,350,VALID,0.170632,
2004-05-13, 02:23:00,VALID,915.831,VALID,0,VALID,99.2754,VALID,0.0509425,VALID,19.9886,VALID,350,VALID,0.0674055,
2004-05-13, 02:24:00,VALID,915.84,VALID,0,VALID,99.3098,VALID,0.0339617,VALID,20.0015,VALID,350,VALID,0.019077,
2004-05-13, 02:25:00,VALID,915.848,VALID,0,VALID,99.2818,VALID,0,VALID,20.0147,VALID,350,VALID,0.271484,
2004-05-13, 02:26:00,VALID,915.835,VALID,0,VALID,99.0148,VALID,0.0339617,VALID,19.9663,VALID,350,VALID,0.579901,
2004-05-13, 02:27:00,VALID,915.814,VALID,0,VALID,99.0211,VALID,0.0169808,VALID,19.9238,VALID,356,VALID,0.751817,
2004-05-13, 02:28:00,VALID,915.794,VALID,0,VALID,99.1178,VALID,0.0679233,VALID,19.9047,VALID,357,VALID,0.809593,
2004-05-13, 02:29:00,VALID,915.794,VALID,0,VALID,99.4535,VALID,0.0339617,VALID,19.9342,VALID,360,VALID,0.780273,
2004-05-13, 02:30:00,VALID,915.803,VALID,0,VALID,99.6696,VALID,0,VALID,19.9896,VALID,1,VALID,0.452604,
2004-05-13, 02:31:00,VALID,915.811,VALID,0,VALID,99.7459,VALID,0.0339617,VALID,20.0209,VALID,1,VALID,0.315225,
2004-05-13, 02:32:00,VALID,915.825,VALID,0,VALID,99.821,VALID,0.0339617,VALID,20.0696,VALID,1,VALID,0.141406,
2004-05-13, 02:33:01,VALID,915.808,VALID,0,VALID,99.8222,VALID,0.0509425,VALID,20.1245,VALID,1,VALID,0.358073,
2004-05-13, 02:34:00,VALID,915.783,VALID,0,VALID,99.5704,VALID,0,VALID,20.1287,VALID,1,VALID,0.587003,
2004-05-13, 02:35:00,VALID,915.752,VALID,0,VALID,99.2856,VALID,0.0339617,VALID,20.0922,VALID,5,VALID,0.800037,
2004-05-13, 02:36:01,VALID,915.733,VALID,0,VALID,99.1076,VALID,0,VALID,20.09,VALID,11,VALID,0.897821,
2004-05-13, 02:37:01,VALID,915.727,VALID,0,VALID,99.1114,VALID,0.0169808,VALID,20.093,VALID,13,VALID,0.672396,
2004-05-13, 02:38:00,VALID,915.716,VALID,0,VALID,99.1521,VALID,0,VALID,20.1051,VALID,12,VALID,0.642671,
2004-05-13, 02:39:00,VALID,915.71,VALID,0,VALID,99.1661,VALID,0.0679233,VALID,20.1188,VALID,360,VALID,0.619735,
2004-05-13, 02:40:00,VALID,915.715,VALID,0,VALID,99.2017,VALID,0.0169808,VALID,20.125,VALID,356,VALID,0.564024,
2004-05-13, 02:41:00,VALID,915.713,VALID,0,VALID,99.2347,VALID,0.0339617,VALID,20.1712,VALID,356,VALID,0.553354,
2004-05-13, 02:42:00,VALID,915.726,VALID,0,VALID,99.0402,VALID,0.0169808,VALID,20.164,VALID,2,VALID,0.617188,
2004-05-13, 02:43:00,VALID,915.715,VALID,0,VALID,98.8863,VALID,0.0169808,VALID,20.1312,VALID,357,VALID,0.896484,
2004-05-13, 02:44:01,VALID,915.729,VALID,0,VALID,98.7554,VALID,0.0339617,VALID,20.1439,VALID,1,VALID,0.68022,
2004-05-13, 02:45:00,VALID,915.73,VALID,0,VALID,98.6613,VALID,0.0509425,VALID,20.1215,VALID,1,VALID,0.610328,
2004-05-13, 02:46:00,VALID,915.7,VALID,0,VALID,98.6269,VALID,0,VALID,20.1027,VALID,360,VALID,0.584449,
2004-05-13, 02:47:00,VALID,915.682,VALID,0,VALID,98.7007,VALID,0.0169808,VALID,20.1126,VALID,3,VALID,0.642756,
2004-05-13, 02:48:01,VALID,915.675,VALID,0,VALID,98.6905,VALID,0.0339617,VALID,20.1024,VALID,1,VALID,0.647017,
2004-05-13, 02:49:01,VALID,915.675,VALID,0,VALID,98.7172,VALID,0.0169808,VALID,20.0892,VALID,1,VALID,0.591704,
2004-05-13, 02:50:00,VALID,915.676,VALID,0,VALID,98.7859,VALID,0.0169808,VALID,20.0927,VALID,3,VALID,0.548971,
2004-05-13, 02:51:00,VALID,915.664,VALID,0,VALID,98.9334,VALID,0.0169808,VALID,20.0962,VALID,3,VALID,0.791667,
2004-05-13, 02:52:00,VALID,915.654,VALID,0,VALID,99.105,VALID,0.0169808,VALID,20.1183,VALID,358,VALID,0.941497,
2004-05-13, 02:53:00,VALID,915.644,VALID,0,VALID,99.0745,VALID,0.0169808,VALID,20.1511,VALID,2,VALID,0.69184,
2004-05-13, 02:54:00,VALID,915.635,VALID,0,VALID,98.9118,VALID,0.0339617,VALID,20.1248,VALID,3,VALID,0.602734,
2004-05-13, 02:55:00,VALID,915.632,VALID,0,VALID,98.9537,VALID,0.0339617,VALID,20.1277,VALID,10,VALID,0.847842,
2004-05-13, 02:56:01,VALID,915.605,VALID,0,VALID,98.8787,VALID,0,VALID,20.1215,VALID,9,VALID,0.507465,
2004-05-13, 02:57:01,VALID,915.59,VALID,0,VALID,98.9168,VALID,0.0339617,VALID,20.1382,VALID,9,VALID,0.387195,
2004-05-13, 02:58:01,VALID,915.58,VALID,0,VALID,98.8367,VALID,0.0509425,VALID,20.1089,VALID,9,VALID,0.234947,
2004-05-13, 02:59:00,VALID,915.58,VALID,0,VALID,98.9499,VALID,0.0169808,VALID,20.1084,VALID,9,VALID,0.0889863,
2004-05-13, 03:00:00,VALID,915.577,VALID,0,VALID,99.0237,VALID,0.0849042,VALID,20.1277,VALID,9,VALID,0.00948661,
2004-05-13, 03:01:00,VALID,915.572,VALID,0,VALID,99.0262,VALID,0.0339617,VALID,20.1409,VALID,9,VALID,0.130526,
2004-05-13, 03:02:00,VALID,915.566,VALID,0,VALID,98.9423,VALID,0,VALID,20.1245,VALID,7,VALID,0.178757,
2004-05-13, 03:03:00,VALID,915.58,VALID,0,VALID,98.9397,VALID,0,VALID,20.1312,VALID,4,VALID,0.100038,
2004-05-13, 03:04:00,VALID,915.59,VALID,0,VALID,98.9499,VALID,0.0169808,VALID,20.1344,VALID,4,VALID,0.136186,
2004-05-13, 03:05:01,VALID,915.607,VALID,0,VALID,99.0427,VALID,0,VALID,20.1546,VALID,4,VALID,0.126116,
2004-05-13, 03:06:01,VALID,915.598,VALID,0,VALID,99.0733,VALID,0,VALID,20.167,VALID,4,VALID,0.000762195,
2004-05-13, 03:07:00,VALID,915.576,VALID,0,VALID,99.0186,VALID,0,VALID,20.1568,VALID,4,VALID,0.000347222,
2004-05-13, 03:08:00,VALID,915.563,VALID,0,VALID,98.9842,VALID,0.0169808,VALID,20.1342,VALID,4,VALID,0,
2004-05-13, 03:09:00,VALID,915.528,VALID,0,VALID,98.9436,VALID,0.0169808,VALID,20.1253,VALID,4,VALID,0,
2004-05-13, 03:10:00,VALID,915.509,VALID,0,VALID,98.3001,VALID,0.0169808,VALID,20.0311,VALID,4,VALID,0,
2004-05-13, 03:11:01,VALID,915.49,VALID,0,VALID,98.0878,VALID,0.0169808,VALID,19.9603,VALID,4,VALID,0,
2004-05-13, 03:12:00,VALID,915.482,VALID,0,VALID,98.2569,VALID,0.0169808,VALID,19.9409,VALID,4,VALID,0.0323661,
2004-05-13, 03:13:01,VALID,915.491,VALID,0,VALID,98.3866,VALID,0,VALID,19.9447,VALID,4,VALID,0,
2004-05-13, 03:14:01,VALID,915.491,VALID,0,VALID,98.4222,VALID,0.0169808,VALID,19.9283,VALID,4,VALID,0,
2004-05-13, 03:15:01,VALID,915.477,VALID,0,VALID,98.5697,VALID,0,VALID,19.9186,VALID,4,VALID,0,
2004-05-13, 03:16:00,VALID,915.465,VALID,0,VALID,98.8507,VALID,0.0169808,VALID,19.9377,VALID,4,VALID,0,
2004-05-13, 03:17:01,VALID,915.472,VALID,0,VALID,99.0669,VALID,0.0169808,VALID,19.97,VALID,4,VALID,0,
2004-05-13, 03:18:00,VALID,915.45,VALID,0,VALID,99.1356,VALID,0,VALID,19.9797,VALID,4,VALID,0,
2004-05-13, 03:19:00,VALID,915.438,VALID,0,VALID,99.0567,VALID,0.0169808,VALID,19.9797,VALID,4,VALID,0,
2004-05-13, 03:20:00,VALID,915.452,VALID,0,VALID,99.1763,VALID,0.0169808,VALID,19.9563,VALID,4,VALID,0,
2004-05-13, 03:21:01,VALID,915.458,VALID,0,VALID,99.3377,VALID,0.0169808,VALID,19.9926,VALID,4,VALID,0,
2004-05-13, 03:22:00,VALID,915.457,VALID,0,VALID,99.2297,VALID,0.0169808,VALID,19.9896,VALID,4,VALID,0,
2004-05-13, 03:23:00,VALID,915.454,VALID,0,VALID,99.0987,VALID,0,VALID,19.9531,VALID,4,VALID,0,
2004-05-13, 03:24:01,VALID,915.456,VALID,0,VALID,98.899,VALID,0,VALID,19.9119,VALID,4,VALID,0,
2004-05-13, 03:25:01,VALID,915.471,VALID,0,VALID,98.8507,VALID,0.0169808,VALID,19.8796,VALID,4,VALID,0,
2004-05-13, 03:26:01,VALID,915.464,VALID,0,VALID,98.9537,VALID,0.0169808,VALID,19.8734,VALID,4,VALID,0,
2004-05-13, 03:27:01,VALID,915.44,VALID,0,VALID,98.7503,VALID,0.0169808,VALID,19.8376,VALID,4,VALID,0,
2004-05-13, 03:28:00,VALID,915.413,VALID,0,VALID,98.3612,VALID,0.0169808,VALID,19.7412,VALID,4,VALID,0,
2004-05-13, 03:29:00,VALID,915.405,VALID,0,VALID,98.529,VALID,0,VALID,19.6886,VALID,4,VALID,0,
2004-05-13, 03:30:00,VALID,915.391,VALID,0,VALID,98.632,VALID,0,VALID,19.6861,VALID,4,VALID,0,
2004-05-13, 03:31:00,VALID,915.393,VALID,0,VALID,98.8253,VALID,-0.0169808,VALID,19.6831,VALID,4,VALID,0,
2004-05-13, 03:32:00,VALID,915.391,VALID,0,VALID,98.9525,VALID,0,VALID,19.69,VALID,4,VALID,0,
2004-05-13, 03:33:00,VALID,915.383,VALID,0,VALID,98.9563,VALID,0,VALID,19.666,VALID,4,VALID,0,
2004-05-13, 03:34:00,VALID,915.368,VALID,0,VALID,99.1127,VALID,0.0169808,VALID,19.6625,VALID,4,VALID,0,
2004-05-13, 03:35:00,VALID,915.364,VALID,0,VALID,99.2958,VALID,0,VALID,19.6789,VALID,4,VALID,0,
2004-05-13, 03:36:01,VALID,915.357,VALID,0,VALID,99.3149,VALID,0.0169808,VALID,19.6826,VALID,4,VALID,0,
2004-05-13, 03:37:00,VALID,915.34,VALID,0,VALID,99.3632,VALID,0.0169808,VALID,19.6662,VALID,4,VALID,0,
2004-05-13, 03:38:00,VALID,915.326,VALID,0,VALID,99.306,VALID,0.0509425,VALID,19.6528,VALID,4,VALID,0,